Snow/Ice From: 16-12-2017 16:00 Until: 17-12-2017 16:00 warning for: Snow/Ice Level: Yellow info button

Although rather usual in this region, locally or potentially dangerous phenomena are expected. (such as local winds, summer thunderstorms, rising streams or high waves) Be aware and pay attention to the latest weather updates, especially if you carry out activities exposed to weather or close to a stream or shoreline. 


Meteo18 Weather Cam more information Meteo18 Weather Cam


Thunder radar more information blitzortung!


warning for Snow/Ice more information rain snow radar


Visit our other weather sites:

Template documentation
and downloads

And another site



Weather Underground History page Text

Daily Summary for August 13, 2017 Units:  Metric    English   Both
« Previous Day
Next Day »
Daily Weekly Monthly Yearly Custom
  High: Low: Average:
Temperature: 23.4 °C 15.5 °C 18.7 °C
Dew Point: 16.0 °C 13.1 °C 14.8 °C
Humidity: 96 % 56 % 79 %
Wind Speed: 11.3 km/h 0.0 km/h 2.8 km/h
Wind Gust: 16.1 km/h - -
Wind:- - SSW
Pressure: 1023.2 hPa 1020.9 hPa -
Precipitation: 0.5 mm    
Historical Graphs
 
 
Tabular Data for August 13, 2017
Time Temperature Dew Point Pressure Wind Wind Speed Wind Gust Humidity Rainfall Rate (Hourly)
00:02 18.3 °C 14.8 °C 1022.6 hPa SW 3.2 km/h 6.4 km/h 80 % 0.0 mm
00:12 18.2 °C 14.9 °C 1022.6 hPa SSW 3.2 km/h 6.4 km/h 81 % 0.0 mm
00:17 18.2 °C 14.9 °C 1022.6 hPa SW 4.8 km/h 6.4 km/h 81 % 0.0 mm
00:22 18.2 °C 14.9 °C 1022.6 hPa SW 4.8 km/h 6.4 km/h 81 % 0.0 mm
00:27 18.2 °C 14.9 °C 1022.6 hPa SW 3.2 km/h 8.0 km/h 81 % 0.0 mm
00:32 18.1 °C 14.8 °C 1022.6 hPa SSW 1.6 km/h 8.0 km/h 81 % 0.0 mm
00:37 18.1 °C 15.0 °C 1022.6 hPa SW 3.2 km/h 9.7 km/h 82 % 0.0 mm
00:42 18.1 °C 15.0 °C 1022.6 hPa SSW 3.2 km/h 9.7 km/h 82 % 0.0 mm
00:47 18.1 °C 15.0 °C 1022.6 hPa SW 1.6 km/h 9.7 km/h 82 % 0.0 mm
00:52 18.0 °C 14.9 °C 1022.6 hPa SW 1.6 km/h 6.4 km/h 82 % 0.0 mm
00:57 18.0 °C 14.9 °C 1022.6 hPa WSW 3.2 km/h 6.4 km/h 82 % 0.0 mm
01:02 18.0 °C 14.9 °C 1022.6 hPa WSW 3.2 km/h 4.8 km/h 82 % 0.0 mm
01:07 18.0 °C 14.9 °C 1022.6 hPa SW 3.2 km/h 4.8 km/h 82 % 0.0 mm
01:12 18.0 °C 14.9 °C 1022.6 hPa Calm   4.8 km/h 82 % 0.0 mm
01:17 17.9 °C 14.8 °C 1022.6 hPa SSW 1.6 km/h 4.8 km/h 82 % 0.0 mm
01:22 17.9 °C 15.0 °C 1022.6 hPa SW 1.6 km/h 4.8 km/h 83 % 0.0 mm
01:32 17.8 °C 15.1 °C 1022.6 hPa Calm   3.2 km/h 84 % 0.0 mm
01:37 17.8 °C 15.1 °C 1022.6 hPa Calm   3.2 km/h 84 % 0.0 mm
01:42 17.8 °C 15.1 °C 1022.6 hPa Calm   6.4 km/h 84 % 0.0 mm
01:52 17.9 °C 15.2 °C 1022.2 hPa West 3.2 km/h 8.0 km/h 84 % 0.0 mm
02:02 17.9 °C 15.3 °C 1022.2 hPa West 3.2 km/h 8.0 km/h 85 % 0.0 mm
02:07 17.9 °C 15.3 °C 1022.2 hPa WSW 1.6 km/h 6.4 km/h 85 % 0.0 mm
02:12 17.9 °C 15.3 °C 1022.2 hPa Calm   6.4 km/h 85 % 0.0 mm
02:17 17.8 °C 15.2 °C 1022.2 hPa West 1.6 km/h 6.4 km/h 85 % 0.0 mm
02:22 17.8 °C 15.4 °C 1022.2 hPa Calm   4.8 km/h 86 % 0.0 mm
02:27 17.8 °C 15.4 °C 1022.2 hPa Calm   3.2 km/h 86 % 0.0 mm
02:32 17.7 °C 15.3 °C 1022.2 hPa Calm   3.2 km/h 86 % 0.0 mm
02:37 17.7 °C 15.3 °C 1022.2 hPa Calm   3.2 km/h 86 % 0.0 mm
02:42 17.7 °C 15.3 °C 1022.2 hPa SW 3.2 km/h 3.2 km/h 86 % 0.0 mm
02:47 17.7 °C 15.3 °C 1022.2 hPa SW 1.6 km/h 6.4 km/h 86 % 0.0 mm
02:52 17.7 °C 15.5 °C 1022.2 hPa SW 3.2 km/h 6.4 km/h 87 % 0.0 mm
02:57 17.6 °C 15.4 °C 1021.9 hPa SW 6.4 km/h 6.4 km/h 87 % 0.0 mm
03:02 17.7 °C 15.5 °C 1021.9 hPa SW 3.2 km/h 6.4 km/h 87 % 0.0 mm
03:12 17.7 °C 15.5 °C 1021.9 hPa West 6.4 km/h 8.0 km/h 87 % 0.0 mm
03:17 17.8 °C 15.4 °C 1021.9 hPa West 6.4 km/h 9.7 km/h 86 % 0.0 mm
03:22 17.8 °C 15.4 °C 1021.9 hPa WSW 3.2 km/h 9.7 km/h 86 % 0.0 mm
03:32 17.7 °C 15.5 °C 1021.9 hPa West 1.6 km/h 8.0 km/h 87 % 0.0 mm
03:37 17.7 °C 15.5 °C 1021.9 hPa WSW 6.4 km/h 8.0 km/h 87 % 0.0 mm
03:42 17.6 °C 15.4 °C 1021.9 hPa SW 3.2 km/h 8.0 km/h 87 % 0.0 mm
03:47 17.6 °C 15.4 °C 1021.9 hPa WSW 3.2 km/h 8.0 km/h 87 % 0.0 mm
03:52 17.5 °C 15.3 °C 1021.9 hPa SSW 1.6 km/h 6.4 km/h 87 % 0.0 mm
03:57 17.4 °C 15.2 °C 1021.9 hPa SW 4.8 km/h 6.4 km/h 87 % 0.0 mm
04:02 17.3 °C 15.3 °C 1021.9 hPa SW 6.4 km/h 6.4 km/h 88 % 0.0 mm
04:07 17.2 °C 15.2 °C 1021.9 hPa SW 4.8 km/h 8.0 km/h 88 % 0.0 mm
04:12 17.2 °C 15.2 °C 1021.6 hPa SSW 3.2 km/h 8.0 km/h 88 % 0.0 mm
04:17 17.3 °C 15.3 °C 1021.6 hPa SW 3.2 km/h 9.7 km/h 88 % 0.0 mm
04:22 17.3 °C 15.3 °C 1021.9 hPa SW 1.6 km/h 9.7 km/h 88 % 0.0 mm
04:27 17.3 °C 15.3 °C 1021.6 hPa SSW 1.6 km/h 9.7 km/h 88 % 0.0 mm
04:32 17.3 °C 15.5 °C 1021.6 hPa SW 1.6 km/h 9.7 km/h 89 % 0.0 mm
04:37 17.2 °C 15.4 °C 1021.6 hPa WSW 3.2 km/h 9.7 km/h 89 % 0.0 mm
04:42 17.2 °C 15.4 °C 1021.6 hPa SW 3.2 km/h 9.7 km/h 89 % 0.0 mm
04:47 17.2 °C 15.5 °C 1021.6 hPa SSW 1.6 km/h 6.4 km/h 90 % 0.0 mm
04:52 17.1 °C 15.4 °C 1021.6 hPa Calm   6.4 km/h 90 % 0.0 mm
04:57 17.0 °C 15.5 °C 1021.6 hPa Calm   6.4 km/h 91 % 0.0 mm
05:02 17.0 °C 15.5 °C 1021.6 hPa Calm   4.8 km/h 91 % 0.0 mm
05:12 16.9 °C 15.4 °C 1021.6 hPa Calm   1.6 km/h 91 % 0.0 mm
05:22 16.9 °C 15.4 °C 1021.6 hPa Calm   1.6 km/h 91 % 0.0 mm
05:32 16.8 °C 15.5 °C 1021.6 hPa Calm     92 % 0.0 mm
05:37 16.8 °C 15.5 °C 1021.6 hPa Calm     92 % 0.0 mm
05:42 16.8 °C 15.5 °C 1021.6 hPa Calm     92 % 0.0 mm
05:47 16.8 °C 15.5 °C 1021.6 hPa Calm     92 % 0.0 mm
05:52 16.8 °C 15.5 °C 1021.6 hPa WNW 3.2 km/h   92 % 0.0 mm
05:57 16.8 °C 15.7 °C 1021.6 hPa Calm   4.8 km/h 93 % 0.0 mm
06:02 16.9 °C 15.8 °C 1021.6 hPa West 4.8 km/h 4.8 km/h 93 % 0.0 mm
06:12 16.8 °C 15.7 °C 1021.6 hPa WSW 1.6 km/h 6.4 km/h 93 % 0.0 mm
06:17 16.8 °C 15.7 °C 1021.6 hPa WSW 4.8 km/h 6.4 km/h 93 % 0.0 mm
06:22 16.8 °C 15.7 °C 1021.6 hPa West 3.2 km/h 6.4 km/h 93 % 0.0 mm
06:32 16.7 °C 15.7 °C 1021.6 hPa West 1.6 km/h 8.0 km/h 94 % 0.0 mm
06:37 16.7 °C 15.7 °C 1021.6 hPa SW 1.6 km/h 8.0 km/h 94 % 0.0 mm
06:42 16.6 °C 15.6 °C 1021.6 hPa WSW 1.6 km/h 8.0 km/h 94 % 0.0 mm
06:47 16.6 °C 15.6 °C 1021.6 hPa Calm   8.0 km/h 94 % 0.0 mm
06:57 16.6 °C 15.8 °C 1021.6 hPa WSW 1.6 km/h 4.8 km/h 95 % 0.0 mm
07:07 16.5 °C 15.7 °C 1021.6 hPa Calm   4.8 km/h 95 % 0.0 mm
07:12 16.5 °C 15.7 °C 1021.6 hPa WNW 1.6 km/h 3.2 km/h 95 % 0.0 mm
07:17 16.5 °C 15.7 °C 1021.6 hPa WNW 1.6 km/h 3.2 km/h 95 % 0.0 mm
07:22 16.6 °C 15.8 °C 1021.9 hPa Calm   3.2 km/h 95 % 0.0 mm
07:27 16.5 °C 15.7 °C 1021.9 hPa Calm   3.2 km/h 95 % 0.5 mm
07:32 16.5 °C 15.7 °C 1021.6 hPa Calm   1.6 km/h 95 % 0.5 mm
07:42 16.5 °C 15.7 °C 1021.9 hPa Calm   1.6 km/h 95 % 0.5 mm
07:47 16.5 °C 15.7 °C 1021.9 hPa WNW 1.6 km/h 3.2 km/h 95 % 0.5 mm
07:52 16.5 °C 15.7 °C 1021.9 hPa NNW 3.2 km/h 3.2 km/h 95 % 0.5 mm
07:57 16.5 °C 15.7 °C 1021.9 hPa NW 1.6 km/h 3.2 km/h 95 % 0.5 mm
08:02 16.6 °C 16.0 °C 1021.9 hPa NNW 1.6 km/h 6.4 km/h 96 % 0.5 mm
08:12 16.5 °C 15.9 °C 1021.9 hPa Calm   6.4 km/h 96 % 0.5 mm
08:17 16.5 °C 15.9 °C 1021.9 hPa Calm   6.4 km/h 96 % 0.5 mm
08:22 16.4 °C 15.6 °C 1021.9 hPa North 3.2 km/h 6.4 km/h 95 % 0.5 mm
08:32 16.3 °C 15.5 °C 1022.2 hPa WNW 1.6 km/h 11.3 km/h 95 % 0.3 mm
08:37 16.2 °C 15.4 °C 1022.2 hPa North 8.0 km/h 11.3 km/h 95 % 0.3 mm
08:42 16.1 °C 15.3 °C 1022.2 hPa NNE 4.8 km/h 8.0 km/h 95 % 0.3 mm
08:47 16.0 °C 15.2 °C 1022.2 hPa NNW 4.8 km/h 9.7 km/h 95 % 0.0 mm
08:52 15.9 °C 15.1 °C 1022.2 hPa NW 1.6 km/h 9.7 km/h 95 % 0.0 mm
08:57 15.9 °C 15.1 °C 1022.2 hPa NNW 4.8 km/h 9.7 km/h 95 % 0.0 mm
09:02 15.8 °C 14.8 °C 1022.2 hPa NW 1.6 km/h 9.7 km/h 94 % 0.0 mm
09:12 15.8 °C 14.8 °C 1022.6 hPa Calm   8.0 km/h 94 % 0.0 mm
09:17 15.8 °C 14.8 °C 1022.6 hPa NW 1.6 km/h 6.4 km/h 94 % 0.0 mm
09:22 15.8 °C 14.8 °C 1022.6 hPa WNW 1.6 km/h 6.4 km/h 94 % 0.0 mm
09:27 15.7 °C 14.7 °C 1022.6 hPa West 3.2 km/h 6.4 km/h 94 % 0.0 mm
09:32 15.7 °C 14.7 °C 1022.6 hPa North 1.6 km/h 6.4 km/h 94 % 0.0 mm
09:37 15.8 °C 14.8 °C 1022.6 hPa NNW 1.6 km/h 6.4 km/h 94 % 0.0 mm
09:42 15.8 °C 14.8 °C 1022.2 hPa NNE 4.8 km/h 6.4 km/h 94 % 0.0 mm
09:47 15.8 °C 14.8 °C 1022.6 hPa NNW 4.8 km/h 6.4 km/h 94 % 0.0 mm
09:52 16.0 °C 15.0 °C 1022.6 hPa NNW 1.6 km/h 8.0 km/h 94 % 0.0 mm
09:57 16.1 °C 15.1 °C 1022.6 hPa North 4.8 km/h 8.0 km/h 94 % 0.0 mm
10:02 16.3 °C 15.3 °C 1022.6 hPa NE 3.2 km/h 8.0 km/h 94 % 0.0 mm
10:07 16.4 °C 15.3 °C 1022.9 hPa Calm   8.0 km/h 93 % 0.0 mm
10:12 16.3 °C 15.0 °C 1022.9 hPa North 3.2 km/h 8.0 km/h 92 % 0.0 mm
10:17 16.4 °C 15.3 °C 1022.9 hPa WNW 1.6 km/h 8.0 km/h 93 % 0.0 mm
10:22 16.5 °C 15.2 °C 1022.9 hPa NW 3.2 km/h 8.0 km/h 92 % 0.0 mm
10:32 16.5 °C 15.0 °C 1022.9 hPa WNW 8.0 km/h 8.0 km/h 91 % 0.0 mm
10:42 16.6 °C 15.3 °C 1023.2 hPa NW 3.2 km/h 9.7 km/h 92 % 0.0 mm
10:52 16.5 °C 15.0 °C 1023.2 hPa NNW 8.0 km/h 9.7 km/h 91 % 0.0 mm
11:02 16.6 °C 15.3 °C 1022.9 hPa NE 4.8 km/h 12.9 km/h 92 % 0.0 mm
11:12 16.6 °C 15.1 °C 1023.2 hPa North 9.7 km/h 11.3 km/h 91 % 0.0 mm
11:17 16.6 °C 15.1 °C 1023.2 hPa NNE 4.8 km/h 11.3 km/h 91 % 0.0 mm
11:27 16.8 °C 14.8 °C 1023.2 hPa NW 3.2 km/h 11.3 km/h 88 % 0.0 mm
11:32 16.9 °C 14.7 °C 1023.2 hPa NE 6.4 km/h 11.3 km/h 87 % 0.0 mm
11:42 17.1 °C 15.1 °C 1023.2 hPa ENE 3.2 km/h 12.9 km/h 88 % 0.0 mm
11:47 17.2 °C 15.2 °C 1023.2 hPa North 6.4 km/h 12.9 km/h 88 % 0.0 mm
11:52 17.4 °C 15.4 °C 1023.2 hPa Calm   11.3 km/h 88 % 0.0 mm
11:57 17.7 °C 15.3 °C 1023.2 hPa NNE 4.8 km/h 11.3 km/h 86 % 0.0 mm
12:02 17.6 °C 14.9 °C 1023.2 hPa North 1.6 km/h 11.3 km/h 84 % 0.0 mm
12:12 18.0 °C 15.1 °C 1023.2 hPa NE 3.2 km/h 9.7 km/h 83 % 0.0 mm
12:17 18.4 °C 15.3 °C 1023.2 hPa NNE 4.8 km/h 12.9 km/h 82 % 0.0 mm
12:22 18.7 °C 14.8 °C 1023.2 hPa NE 6.4 km/h 12.9 km/h 78 % 0.0 mm
12:27 18.9 °C 15.0 °C 1023.2 hPa NNE 6.4 km/h 12.9 km/h 78 % 0.0 mm
12:32 19.3 °C 15.2 °C 1023.2 hPa East 1.6 km/h 12.9 km/h 77 % 0.0 mm
12:37 19.3 °C 15.0 °C 1022.9 hPa Calm   12.9 km/h 76 % 0.0 mm
12:42 19.6 °C 15.0 °C 1022.9 hPa NW 6.4 km/h 9.7 km/h 75 % 0.0 mm
12:47 19.7 °C 15.3 °C 1022.9 hPa North 3.2 km/h 9.7 km/h 76 % 0.0 mm
12:52 20.1 °C 15.3 °C 1022.9 hPa WNW 1.6 km/h 9.7 km/h 74 % 0.0 mm
12:57 20.4 °C 15.2 °C 1022.9 hPa NNW 8.0 km/h 9.7 km/h 72 % 0.0 mm
13:02 20.1 °C 14.9 °C 1022.9 hPa WNW 1.6 km/h 9.7 km/h 72 % 0.0 mm
13:07 20.1 °C 14.9 °C 1022.6 hPa NE 8.0 km/h 9.7 km/h 72 % 0.0 mm
13:12 20.2 °C 15.0 °C 1022.6 hPa NW 4.8 km/h 11.3 km/h 72 % 0.0 mm
13:17 20.7 °C 15.3 °C 1022.6 hPa NNE 1.6 km/h 14.5 km/h 71 % 0.0 mm
13:27 20.6 °C 15.2 °C 1022.6 hPa NW 1.6 km/h 14.5 km/h 71 % 0.0 mm
13:32 20.8 °C 15.1 °C 1022.6 hPa North 9.7 km/h 14.5 km/h 70 % 0.0 mm
13:42 21.1 °C 15.4 °C 1022.6 hPa North 4.8 km/h 12.9 km/h 70 % 0.0 mm
13:47 21.2 °C 15.3 °C 1022.6 hPa WSW 1.6 km/h 9.7 km/h 69 % 0.0 mm
13:52 21.1 °C 14.7 °C 1022.6 hPa NW 3.2 km/h 9.7 km/h 67 % 0.0 mm
13:57 20.9 °C 14.1 °C 1022.6 hPa Calm   9.7 km/h 65 % 0.0 mm
14:02 21.3 °C 14.5 °C 1022.2 hPa NE 3.2 km/h 9.7 km/h 65 % 0.0 mm
14:07 21.6 °C 15.0 °C 1022.2 hPa WNW 4.8 km/h 9.7 km/h 66 % 0.0 mm
14:12 21.2 °C 14.6 °C 1022.2 hPa NNW 3.2 km/h 9.7 km/h 66 % 0.0 mm
14:17 21.1 °C 14.5 °C 1022.6 hPa Calm   9.7 km/h 66 % 0.0 mm
14:22 21.2 °C 14.4 °C 1022.2 hPa NW 3.2 km/h 11.3 km/h 65 % 0.0 mm
14:32 21.1 °C 14.5 °C 1022.2 hPa ENE 6.4 km/h 11.3 km/h 66 % 0.0 mm
14:37 21.0 °C 14.4 °C 1022.2 hPa NNE 8.0 km/h 11.3 km/h 66 % 0.0 mm
14:42 21.2 °C 14.6 °C 1022.2 hPa NNE 3.2 km/h 12.9 km/h 66 % 0.0 mm
14:52 21.6 °C 14.5 °C 1022.2 hPa West 1.6 km/h 11.3 km/h 64 % 0.0 mm
14:57 21.6 °C 14.5 °C 1022.2 hPa NW 3.2 km/h 11.3 km/h 64 % 0.0 mm
15:02 21.8 °C 14.7 °C 1022.2 hPa Calm   11.3 km/h 64 % 0.0 mm
15:07 21.9 °C 14.5 °C 1022.2 hPa ENE 3.2 km/h 8.0 km/h 63 % 0.0 mm
15:12 21.9 °C 14.5 °C 1022.2 hPa NE 1.6 km/h 14.5 km/h 63 % 0.0 mm
15:22 21.4 °C 14.3 °C 1021.9 hPa West 3.2 km/h 16.1 km/h 64 % 0.0 mm
15:32 21.5 °C 14.4 °C 1021.9 hPa ENE 4.8 km/h 12.9 km/h 64 % 0.0 mm
15:37 21.5 °C 14.2 °C 1021.9 hPa ENE 3.2 km/h 8.0 km/h 63 % 0.0 mm
15:42 21.6 °C 14.7 °C 1021.9 hPa NE 3.2 km/h 6.4 km/h 65 % 0.0 mm
15:47 21.8 °C 14.2 °C 1021.9 hPa NE 11.3 km/h 11.3 km/h 62 % 0.0 mm
15:52 21.7 °C 14.6 °C 1021.9 hPa Calm   11.3 km/h 64 % 0.0 mm
15:57 21.7 °C 14.1 °C 1021.9 hPa NW 1.6 km/h 11.3 km/h 62 % 0.0 mm
16:02 21.9 °C 14.3 °C 1021.9 hPa SW 1.6 km/h 11.3 km/h 62 % 0.0 mm
16:07 22.2 °C 14.1 °C 1021.9 hPa Calm   6.4 km/h 60 % 0.0 mm
16:12 22.4 °C 14.3 °C 1021.9 hPa North 3.2 km/h 4.8 km/h 60 % 0.0 mm
16:17 22.4 °C 15.3 °C 1021.9 hPa NNW 3.2 km/h 11.3 km/h 64 % 0.0 mm
16:22 22.2 °C 15.1 °C 1021.6 hPa NW 4.8 km/h 11.3 km/h 64 % 0.0 mm
16:27 22.1 °C 15.0 °C 1021.6 hPa NW 3.2 km/h 11.3 km/h 64 % 0.0 mm
16:32 21.9 °C 14.8 °C 1021.6 hPa West 3.2 km/h 6.4 km/h 64 % 0.0 mm
16:37 22.0 °C 14.4 °C 1021.6 hPa West 3.2 km/h 6.4 km/h 62 % 0.0 mm
16:42 22.3 °C 14.4 °C 1021.6 hPa NW 3.2 km/h 6.4 km/h 61 % 0.0 mm
16:52 22.3 °C 14.2 °C 1021.6 hPa Calm   8.0 km/h 60 % 0.0 mm
16:57 22.6 °C 13.9 °C 1021.6 hPa Calm   8.0 km/h 58 % 0.0 mm
17:02 22.8 °C 13.8 °C 1021.6 hPa Calm   8.0 km/h 57 % 0.0 mm
17:07 22.7 °C 14.0 °C 1021.6 hPa NW 4.8 km/h 4.8 km/h 58 % 0.0 mm
17:12 22.5 °C 14.1 °C 1021.6 hPa Calm   11.3 km/h 59 % 0.0 mm
17:17 22.3 °C 14.2 °C 1021.6 hPa NW 6.4 km/h 11.3 km/h 60 % 0.0 mm
17:22 22.4 °C 14.0 °C 1021.6 hPa Calm   11.3 km/h 59 % 0.0 mm
17:27 22.7 °C 14.0 °C 1021.6 hPa Calm   9.7 km/h 58 % 0.0 mm
17:32 22.4 °C 14.0 °C 1021.6 hPa North 3.2 km/h 9.7 km/h 59 % 0.0 mm
17:37 22.4 °C 14.0 °C 1021.6 hPa North 1.6 km/h 9.7 km/h 59 % 0.0 mm
17:42 22.7 °C 14.3 °C 1021.6 hPa NNW 4.8 km/h 9.7 km/h 59 % 0.0 mm
17:52 22.6 °C 13.9 °C 1021.2 hPa WNW 3.2 km/h 11.3 km/h 58 % 0.0 mm
17:57 22.9 °C 14.2 °C 1021.2 hPa NW 3.2 km/h 11.3 km/h 58 % 0.0 mm
18:02 23.0 °C 13.7 °C 1021.2 hPa West 4.8 km/h 11.3 km/h 56 % 0.0 mm
18:07 22.9 °C 13.7 °C 1021.2 hPa SW 1.6 km/h 11.3 km/h 56 % 0.0 mm
18:12 23.2 °C 14.2 °C 1021.2 hPa NW 4.8 km/h 11.3 km/h 57 % 0.0 mm
18:17 23.4 °C 14.4 °C 1021.2 hPa NNW 1.6 km/h 11.3 km/h 57 % 0.0 mm
18:22 23.3 °C 14.0 °C 1021.2 hPa NNE 6.4 km/h 9.7 km/h 56 % 0.0 mm
18:27 23.1 °C 14.6 °C 1021.2 hPa NE 6.4 km/h 9.7 km/h 59 % 0.0 mm
18:32 22.7 °C 14.5 °C 1020.9 hPa NE 8.0 km/h 8.0 km/h 60 % 0.0 mm
18:42 22.7 °C 14.5 °C 1021.2 hPa NNE 3.2 km/h 12.9 km/h 60 % 0.0 mm
18:52 22.4 °C 14.5 °C 1020.9 hPa ENE 8.0 km/h 11.3 km/h 61 % 0.0 mm
18:57 22.3 °C 14.7 °C 1020.9 hPa ENE 6.4 km/h 11.3 km/h 62 % 0.0 mm
19:02 22.3 °C 14.7 °C 1020.9 hPa ENE 4.8 km/h 11.3 km/h 62 % 0.0 mm
19:12 22.4 °C 14.5 °C 1020.9 hPa ENE 4.8 km/h 9.7 km/h 61 % 0.0 mm
19:17 22.1 °C 14.5 °C 1020.9 hPa NNE 8.0 km/h 9.7 km/h 62 % 0.0 mm
19:22 21.9 °C 14.3 °C 1020.9 hPa NE 6.4 km/h 9.7 km/h 62 % 0.0 mm
19:27 21.8 °C 14.4 °C 1020.9 hPa NNE 8.0 km/h 12.9 km/h 63 % 0.0 mm
19:32 21.9 °C 14.3 °C 1020.9 hPa NNE 4.8 km/h 12.9 km/h 62 % 0.0 mm
19:42 22.0 °C 14.6 °C 1020.9 hPa NE 6.4 km/h 11.3 km/h 63 % 0.0 mm
19:47 21.9 °C 14.3 °C 1020.9 hPa NNE 8.0 km/h 12.9 km/h 62 % 0.0 mm
19:52 21.8 °C 14.2 °C 1020.9 hPa North 9.7 km/h 12.9 km/h 62 % 0.0 mm
20:02 21.7 °C 14.6 °C 1020.9 hPa ENE 3.2 km/h 14.5 km/h 64 % 0.0 mm
20:12 21.3 °C 14.2 °C 1020.9 hPa NE 6.4 km/h 16.1 km/h 64 % 0.0 mm
20:17 21.2 °C 14.4 °C 1020.9 hPa NE 9.7 km/h 16.1 km/h 65 % 0.0 mm
20:22 21.0 °C 14.2 °C 1020.9 hPa NE 6.4 km/h 12.9 km/h 65 % 0.0 mm
20:32 20.7 °C 14.4 °C 1020.9 hPa NE 6.4 km/h 12.9 km/h 67 % 0.0 mm
20:37 20.6 °C 14.3 °C 1021.2 hPa NE 4.8 km/h 12.9 km/h 67 % 0.0 mm
20:42 20.4 °C 14.3 °C 1021.2 hPa NE 6.4 km/h 9.7 km/h 68 % 0.0 mm
20:47 20.3 °C 14.4 °C 1021.2 hPa NE 3.2 km/h 9.7 km/h 69 % 0.0 mm
20:52 20.1 °C 14.5 °C 1021.2 hPa NE 3.2 km/h 9.7 km/h 70 % 0.0 mm
20:57 19.7 °C 14.3 °C 1021.2 hPa NE 3.2 km/h 9.7 km/h 71 % 0.0 mm
21:02 19.4 °C 14.2 °C 1021.2 hPa NE 4.8 km/h 6.4 km/h 72 % 0.0 mm
21:12 19.2 °C 14.5 °C 1021.2 hPa NNE 1.6 km/h 6.4 km/h 74 % 0.0 mm
21:17 18.9 °C 14.4 °C 1021.2 hPa Calm   6.4 km/h 75 % 0.0 mm
21:22 18.7 °C 14.2 °C 1021.2 hPa North 1.6 km/h 4.8 km/h 75 % 0.0 mm
21:27 18.6 °C 14.3 °C 1021.2 hPa Calm   3.2 km/h 76 % 0.0 mm
21:32 18.4 °C 14.3 °C 1021.2 hPa NNW 1.6 km/h 4.8 km/h 77 % 0.0 mm
21:37 18.2 °C 14.1 °C 1021.2 hPa Calm   4.8 km/h 77 % 0.0 mm
21:42 18.1 °C 14.0 °C 1021.2 hPa North 1.6 km/h 4.8 km/h 77 % 0.0 mm
21:47 18.0 °C 14.1 °C 1021.2 hPa NNW 3.2 km/h 4.8 km/h 78 % 0.0 mm
21:52 17.9 °C 14.0 °C 1021.6 hPa NNE 1.6 km/h 6.4 km/h 78 % 0.0 mm
21:57 17.8 °C 13.9 °C 1021.6 hPa Calm   6.4 km/h 78 % 0.0 mm
22:02 17.6 °C 13.9 °C 1021.6 hPa Calm   4.8 km/h 79 % 0.0 mm
22:07 17.3 °C 13.8 °C 1021.6 hPa North 1.6 km/h 3.2 km/h 80 % 0.0 mm
22:12 17.2 °C 13.7 °C 1021.6 hPa Calm   3.2 km/h 80 % 0.0 mm
22:17 17.1 °C 13.8 °C 1021.6 hPa Calm   3.2 km/h 81 % 0.0 mm
22:27 16.8 °C 13.7 °C 1021.6 hPa Calm   3.2 km/h 82 % 0.0 mm
22:32 16.7 °C 13.6 °C 1021.6 hPa NNE 1.6 km/h 3.2 km/h 82 % 0.0 mm
22:37 16.7 °C 13.6 °C 1021.6 hPa Calm   3.2 km/h 82 % 0.0 mm
22:42 16.6 °C 13.7 °C 1021.6 hPa Calm   1.6 km/h 83 % 0.0 mm
22:52 16.3 °C 13.6 °C 1021.6 hPa Calm   1.6 km/h 84 % 0.0 mm
22:57 16.2 °C 13.5 °C 1021.6 hPa Calm   1.6 km/h 84 % 0.0 mm
23:02 16.1 °C 13.6 °C 1021.6 hPa Calm   1.6 km/h 85 % 0.0 mm
23:07 15.9 °C 13.4 °C 1021.6 hPa Calm   1.6 km/h 85 % 0.0 mm
23:12 15.8 °C 13.3 °C 1021.6 hPa Calm   1.6 km/h 85 % 0.0 mm
23:17 15.8 °C 13.3 °C 1021.6 hPa Calm   1.6 km/h 85 % 0.0 mm
23:22 15.7 °C 13.2 °C 1021.6 hPa Calm   1.6 km/h 85 % 0.0 mm
23:32 15.7 °C 13.4 °C 1021.6 hPa Calm   1.6 km/h 86 % 0.0 mm
23:37 15.7 °C 13.2 °C 1021.6 hPa NNW 1.6 km/h 1.6 km/h 85 % 0.0 mm
23:42 15.6 °C 13.1 °C 1021.6 hPa NNW 1.6 km/h 1.6 km/h 85 % 0.0 mm
23:47 15.5 °C 13.2 °C 1021.6 hPa Calm   1.6 km/h 86 % 0.0 mm
23:52 15.5 °C 13.2 °C 1021.6 hPa Calm   1.6 km/h 86 % 0.0 mm
23:57 15.5 °C 13.2 °C 1021.6 hPa Calm   1.6 km/h 86 % 0.0 mm
Meteo18
Compliments of Weather Underground - 4 mb

Script developed by  Jim McMurry - jmcmurry@mwt.net Adapted for the template by  Wim van der Kuil - Leuven-Template.eu

You find our weather info also at:

European Weather Network

Weather Underground

Equipment we use:

Weather-station
Davis Vue

Weather-program
Meteohub

Weather-server
Raspberry PI 2 B+

Provider
1 and 1

Davis Vue

Meteohub

Raspberry PI 2 B+

1 and 1